Miscellaneous Local Product
Issued by NWS North Platte, NE

Home | Current Version | Previous Version | Graphics & Text | Print | Product List | Glossary On
Versions: 1 2 3 4 5 6 7 8 9 10 11 12 13 14 15 16 17 18 19 20 21 22 23 24 25 26 27 28 29 30 31 32 33 34 35 36 37 38 39 40 41 42 43 44 45 46 47 48 49 50
000
AXUS43 KLBF 182310
MISLBF


WESTERN AND NORTH CENTRAL NEBRASKA HOURLY WEATHER ROUNDUP
NATIONAL WEATHER SERVICE NORTH PLATTE NE
600 PM CDT THU SEP 18 2014

***STATIONS NOT REPORTING VARIABLES SUCH AS SKY/WEATHER OR
PRESSURE ARE PROVIDED BY THE NEBRASKA DEPARTMENT OF
ROADS...RAWS...AND APRS NETWORKS...AND ARE NOT UNDER
NATIONAL WEATHER SERVICE QUALITY CONTROL***

...OBSERVATIONS IN AND NEAR THE EASTERN PANHANDLE OF NEBRASKA...

CITY           SKY/WX    TMP DP  RH WIND       PRES   REMARKS
PINE RIDGE     SUNNY     87  53  31 S15       29.78F
CHADRON        MOSUNNY   92  45  19 S14       29.76F
ALLIANCE       MOSUNNY   84  62  47 SE20      29.86S
SIDNEY         SUNNY     88  52  29 S20       29.91F
WHITECLAY        N/A     86  52  30 S10         N/A
RUSHVILLE        N/A     89  55  30 S22         N/A
CRESCENT LAKE    N/A     80  63  55 SE9G17      N/A
LISCO            N/A     88  59  37 E14         N/A
BIG SPRINGS      N/A     77  64  64 S7          N/A
$$

...OBSERVATIONS IN NORTH CENTRAL NEBRASKA...

CITY           SKY/WX    TMP DP  RH WIND       PRES   REMARKS
VALENTINE      MOSUNNY   81  63  54 S20G32    29.82F
THEDFORD       SUNNY     75  63  65 S20       29.90S
AINSWORTH      SUNNY     78  62  57 S18       29.85F
O`NEILL        SUNNY     77  61  56 S15       29.88F
ORD            MOSUNNY   75  63  66 S16       29.89F
BROKEN BOW     CLOUDY    71  63  75 S16G23    29.91F
SPRINGVIEW       N/A     81  63  53 S12G20      N/A
ROSE             N/A     78  68  71 E18         N/A
NEWPORT          N/A     79  61  53 S13         N/A
COMSTOCK         N/A     77  70  77 S10         N/A
CHAMBERS         N/A     75  59  57 SW8G15      N/A
$$

...OBSERVATIONS IN SOUTHWEST NEBRASKA AND FAR NORTHEAST COLORADO...

CITY           SKY/WX    TMP DP  RH WIND       PRES   REMARKS
WRAY           FAIR      86  62  44 E12G20    29.89F
HOLYOKE        FAIR      82  63  51 SE9G16    29.90F
IMPERIAL       SUNNY     75  62  64 SE13      29.91F
OGALLALA       SUNNY     73  63  72 SE12      29.91S
NORTH PLATTE   CLOUDY    68  61  78 S8        29.91F
MCCOOK         CLOUDY    70  62  76 SE8       29.92F
LEXINGTON      CLOUDY    68  66  93 SE9       29.92F FOG
PAXTON           N/A     70  64  82 S9          N/A
SUTHERLAND       N/A     68  63  83 S8          N/A
BRADY            N/A     68  63  84 CALM        N/A
GOTHENBURG       N/A     69  61  76 S6          N/A
CALLAWAY         N/A     71  64  79 S12         N/A
$$

...SOME WEATHER OBSERVATIONS FROM AROUND THE REGION...

CITY           SKY/WX    TMP DP  RH WIND       PRES   REMARKS
DENVER         MOSUNNY   88  36  15 SE14      29.94F
LARAMIE        SUNNY     81  31  16 S14       30.06F
CHEYENNE       SUNNY     84  28  13 S10       30.00F
SCOTTSBLUFF    MOSUNNY   91  51  25 E13       29.83F
RAPID CITY     SUNNY     89  50  26 SE10      29.73F
PIERRE         MOSUNNY   81  63  54 S20       29.74F
WINNER         FAIR      82  60  47 S14G24    29.80F
SIOUX FALLS    MOSUNNY   74  54  49 S14       29.93S
OMAHA          SUNNY     73  56  54 SE14      29.96S
GRAND ISLAND   CLOUDY    72  65  78 S9        29.93F
KANSAS CITY    CLOUDY    66  61  84 E9        30.01S
WICHITA        MOSUNNY   89  54  30 S9        29.89F
HAYS           SUNNY     88  63  42 S22G28    29.86S
LIBERAL        SUNNY     88  55  33 S13G21    29.93S
GOODLAND       SUNNY     85  60  42 SE12      29.91F
$$



USA.gov is the U.S. government's official web portal to all federal, state and local government web resources and services.